Regional Weather Roundup
Issued by NWS

Home | Current Version | Previous Version | Text Only | Print | Product List | Glossary Off
Versions: 1 2 3 4 5 6 7 8 9 10 11 12 13 14 15 16 17 18 19 20 21 22 23 24 25 26 27 28 29 30 31 32 33 34 35 36 37 38 39 40 41 42 43 44 45 46 47 48 49 50

000
ASUS43 KOAX 020610
RWRNE

WEATHER ROUNDUP FOR NEBRASKA
NATIONAL WEATHER SERVICE OMAHA NE
100 AM CDT THU OCT 02 2014

NOTES: SATELLITE DATA IS BEING USED TO AUGMENT CLOUD COVER ABOVE
       12000 FEET.
       "FAIR" INDICATES FEW OR NO CLOUDS BELOW 12,000 FEET WITH NO
       SIGNIFICANT WEATHER AND/OR OBSTRUCTIONS TO VISIBILITY.

  * THESE STATIONS DO NOT REPORT WEATHER SUCH AS RAIN...SNOW OR FOG.

NEZ001>004-019>022-054>056-020700-
NEBRASKA PANHANDLE

CITY           SKY/WX    TMP DP  RH WIND       PRES   REMARKS
SCOTTSBLUFF    PTCLDY    43  42  97 NW5       30.03S
6HR MIN TEMP:  43; 6HR MAX TEMP:  54; 6HR PCP:  0.02;

ALLIANCE       CLOUDY    48  46  93 N6        30.00F
6HR MIN TEMP:  46; 6HR MAX TEMP:  52; 6HR PCP:  0.04;

CHADRON        CLOUDY    48  46  93 W5        30.02S
6HR MIN TEMP:  48; 6HR MAX TEMP:  54; 6HR PCP: TRACE;

KIMBALL        PTCLDY    41  40  97 NW6       30.04R
SIDNEY         PTCLDY    45  43  93 NW8       30.03S
6HR MIN TEMP:  44; 6HR MAX TEMP:  50; 6HR PCP:  0.77;

$$

NEZ057>060-069>072-079>082-020700-
SOUTHWEST NEBRASKA

CITY           SKY/WX    TMP DP  RH WIND       PRES   REMARKS
NORTH PLATTE   CLOUDY    52  48  86 N16G30    29.94R
6HR MIN TEMP:  52; 6HR MAX TEMP:  68; 6HR PCP:  0.36;

IMPERIAL       LGT RAIN  50  46  86 N13       29.97R
6HR MIN TEMP:  50; 6HR MAX TEMP:  71; 6HR PCP:  0.34;

LEXINGTON      RAIN      51  50  95 N21G29    29.88F
MCCOOK         MOCLDY    55  50  83 N22G29    29.89R
6HR MIN TEMP:  54; 6HR MAX TEMP:  75; 6HR PCP:  0.01;

OGALLALA       CLOUDY    52  49  89 N13G18    29.96R
$$

NEZ005>010-023>029-035>040-094-020700-
NORTH CENTRAL NEBRASKA

CITY           SKY/WX    TMP DP  RH WIND       PRES   REMARKS
VALENTINE      LGT RAIN  51  49  92 W6        29.97S FOG
6HR MIN TEMP:  51; 6HR MAX TEMP:  63; 6HR PCP:  0.25;

AINSWORTH      RAIN      51  50  97 NW12      29.96R
BROKEN BOW     RAIN      53  50  89 NW28G36   29.92R FOG
6HR MIN TEMP:  53; 6HR MAX TEMP:  71;

O`NEILL        CLOUDY    56  50  82 N12       29.88R
ORD            LGT RAIN  56  54  93 N9        29.83S
6HR MIN TEMP:  55; 6HR MAX TEMP:  68; 6HR PCP:  0.23;

THEDFORD       HVY RAIN  51  50  95 N13G18    29.97S
$$

NEZ041-046>049-061>064-073>077-083>087-020700-
SOUTH CENTRAL NEBRASKA

CITY           SKY/WX    TMP DP  RH WIND       PRES   REMARKS
GRAND ISLAND   PTCLDY    60  55  83 NE7       29.79F
6HR MIN TEMP:  59; 6HR MAX TEMP:  71; 6HR PCP: TRACE;

AURORA         PTCLDY    59  57  93 NE5       29.77F
HASTINGS       PTCLDY    59  56  89 N3        29.78S
6HR MIN TEMP:  56; 6HR MAX TEMP:  73; 6HR PCP:  1.03;

HEBRON         MOCLDY    64  59  85 E3        29.75F
HOLDREGE       TSTM      58  54  88 NW14G25   29.84R
KEARNEY *      CLOUDY    59  54  82 N14       29.81S
YORK           CLEAR     63  61  94 NE8       29.77F FOG
$$

NEZ011>018-030>034-042>045-020700-
NORTHEAST NEBRASKA

CITY           SKY/WX    TMP DP  RH WIND       PRES   REMARKS
NORFOLK        CLOUDY    58  54  86 NW7       29.80F
6HR MIN TEMP:  58; 6HR MAX TEMP:  69; 6HR PCP: TRACE;

ALBION         MOCLDY    60  51  71 N6        29.81F
BLAIR          PTCLDY    65  62  91 CALM      29.78F FOG
COLUMBUS *     MOCLDY    59  55  88 E3        29.77F
FREMONT        MOCLDY    65  62  88 CALM      29.78F
TEKAMAH        LGT RAIN  65  62  90 SE8       29.76F
6HR MIN TEMP:  63; 6HR MAX TEMP:  74; 6HR PCP:  0.01;

WAYNE          LGT RAIN  58  55  89 CALM      29.81F
$$

NEZ050>053-065>068-078-088>093-020700-
SOUTHEAST NEBRASKA

CITY           SKY/WX    TMP DP  RH WIND       PRES   REMARKS
LINCOLN        MOCLDY    63  60  90 N9        29.77F
6HR MIN TEMP:  63; 6HR MAX TEMP:  73;

OMAHA EPPLEY   MOCLDY    62  60  93 N3        29.78F
6HR MIN TEMP:  62; 6HR MAX TEMP:  73;

BEATRICE       MOCLDY    64  62  91 NE5       29.76S FOG
FALLS CITY     MOCLDY    67  65  93 E3        29.75R
6HR MIN TEMP:  65; 6HR MAX TEMP:  75;

NEBRASKA CITY  CLOUDY    63  63 100 NE3       29.77S FOG
PLATTSMOUTH    FOG       62  60  94 NE5       29.78S VSB 1/2
$$

NEZ044-045-051>053-067-020700-
OMAHA AREA

CITY           SKY/WX    TMP DP  RH WIND       PRES   REMARKS
OMAHA EPPLEY   MOCLDY    62  60  93 N3        29.78F
6HR MIN TEMP:  62; 6HR MAX TEMP:  73;

BLAIR          PTCLDY    65  62  91 CALM      29.78F FOG
FREMONT        MOCLDY    65  62  88 CALM      29.78F
MILLARD          N/A     62  61  96 CALM      29.76F FOG
OFFUTT AFB     PTCLDY    62  62 100 CALM      29.77F
PLATTSMOUTH    FOG       62  60  94 NE5       29.78S VSB 1/2
WAHOO          FAIR      63  60  90 N6        29.77F FOG
$$


USA.gov is the U.S. government's official web portal to all federal, state and local government web resources and services.